| time (UTC) | temp F | wind direction | speed MPH | gust MPH | rain 1hr in | rain 24hr in | rain mn in | humidity % | barometer mb |
| 20260905030113 | 59 | 321 | 0.0 | 0.0 | 0.00 | 0.00 | 0.00 | 81 | 1015.6 |
| 20260905024600 | 60 | 321 | 0.0 | 0.0 | 0.00 | 0.00 | 0.00 | 77 | 1015.5 |
| 20260905023102 | 62 | 321 | 0.0 | 0.0 | 0.00 | 0.00 | 0.00 | 74 | 1015.4 |
| 20260905021502 | 63 | 321 | 0.0 | 0.0 | 0.00 | 0.00 | 0.00 | 71 | 1015.5 |
| 20260905020106 | 64 | 321 | 0.0 | 0.0 | 0.00 | 0.00 | 0.00 | 70 | 1015.5 |
| 20260905014601 | 65 | 321 | 0.0 | 0.0 | 0.00 | 0.00 | 0.00 | 71 | 1015.5 |
| 20260905013108 | 64 | 321 | 0.0 | 1.0 | 0.00 | 0.00 | 0.00 | 70 | 1015.3 |
| 20260905011511 | 64 | 321 | 0.0 | 2.0 | 0.00 | 0.00 | 0.00 | 70 | 1015.3 |
| 20260905010117 | 64 | 277 | 0.0 | 1.0 | 0.00 | 0.00 | 0.00 | 70 | 1015.1 |
| 20260905004604 | 64 | 321 | 0.0 | 2.0 | 0.00 | 0.00 | 0.00 | 72 | 1015.0 |
| 20260905003003 | 64 | 307 | 0.0 | 1.0 | 0.00 | 0.00 | 0.00 | 71 | 1014.9 |
| 20260905001507 | 64 | 351 | 0.0 | 2.0 | 0.00 | 0.00 | 0.00 | 71 | 1014.9 |
| 20260905000117 | 64 | 337 | 1.0 | 4.0 | 0.00 | 0.00 | 0.00 | 70 | 1014.8 |
| 20260904234558 | 66 | 214 | 0.0 | 5.0 | 0.00 | 0.00 | 0.00 | 66 | 1014.7 |
| 20260904233014 | 66 | 311 | 1.0 | 4.0 | 0.00 | 0.00 | 0.00 | 63 | 1014.6 |
| 20260904231509 | 68 | 342 | 1.0 | 4.0 | 0.00 | 0.00 | 0.00 | 62 | 1014.4 |
| 20260904230116 | 67 | 301 | 3.0 | 5.0 | 0.00 | 0.01 | 0.00 | 62 | 1014.5 |
| 20260904224600 | 68 | 304 | 1.0 | 6.0 | 0.00 | 0.01 | 0.00 | 65 | 1014.3 |
| 20260904223010 | 68 | 239 | 0.0 | 7.0 | 0.00 | 0.01 | 0.00 | 60 | 1014.3 |
| 20260904221513 | 68 | 250 | 0.0 | 5.0 | 0.00 | 0.01 | 0.00 | 64 | 1014.3 |
| 20260904220122 | 68 | 321 | 0.0 | 4.0 | 0.00 | 0.15 | 0.00 | 65 | 1014.5 |
| 20260904214505 | 67 | 329 | 2.0 | 5.0 | 0.00 | 0.15 | 0.00 | 67 | 1014.6 |
| 20260904213007 | 67 | 354 | 1.0 | 4.0 | 0.00 | 0.15 | 0.00 | 66 | 1014.6 |
| 20260904211515 | 66 | 326 | 1.0 | 6.0 | 0.00 | 0.15 | 0.00 | 69 | 1014.4 |
| 20260904210118 | 67 | 290 | 2.0 | 6.0 | 0.00 | 0.18 | 0.00 | 69 | 1014.5 |
| 20260904204604 | 66 | 326 | 0.0 | 5.0 | 0.00 | 0.18 | 0.00 | 71 | 1014.4 |
| 20260904203004 | 65 | 216 | 0.0 | 5.0 | 0.00 | 0.18 | 0.00 | 72 | 1014.4 |
| 20260904201507 | 65 | 319 | 0.0 | 5.0 | 0.00 | 0.18 | 0.00 | 73 | 1014.4 |
| 20260904200116 | 64 | 306 | 2.0 | 8.0 | 0.00 | 0.18 | 0.00 | 71 | 1014.4 |
| 20260904194600 | 64 | 225 | 2.0 | 8.0 | 0.00 | 0.18 | 0.00 | 71 | 1014.5 |
| 20260904193108 | 64 | 330 | 1.0 | 6.0 | 0.00 | 0.18 | 0.00 | 72 | 1014.3 |
| 20260904191502 | 66 | 330 | 1.0 | 4.0 | 0.00 | 0.18 | 0.00 | 69 | 1014.3 |
| 20260904190109 | 65 | 346 | 2.0 | 8.0 | 0.00 | 0.18 | 0.00 | 70 | 1014.1 |
| 20260904184555 | 65 | 330 | 2.0 | 5.0 | 0.00 | 0.18 | 0.00 | 72 | 1014.0 |
| 20260904183101 | 65 | 300 | 1.0 | 4.0 | 0.00 | 0.18 | 0.00 | 74 | 1014.0 |
| 20260904181602 | 64 | 335 | 1.0 | 4.0 | 0.00 | 0.18 | 0.00 | 74 | 1013.9 |
| 20260904180112 | 65 | 341 | 1.0 | 5.0 | 0.00 | 0.18 | 0.00 | 75 | 1014.1 |
| 20260904174551 | 64 | 308 | 0.0 | 3.0 | 0.00 | 0.18 | 0.00 | 73 | 1014.1 |
| 20260904173113 | 62 | 239 | 0.0 | 2.0 | 0.00 | 0.18 | 0.00 | 75 | 1014.0 |
| 20260904171601 | 61 | 14 | 0.0 | 3.0 | 0.00 | 0.18 | 0.00 | 78 | 1013.9 |
| 20260904170107 | 58 | 222 | 0.0 | 1.0 | 0.00 | 0.18 | 0.00 | 86 | 1014.0 |
| 20260904164545 | 57 | 222 | 0.0 | 2.0 | 0.00 | 0.18 | 0.00 | 89 | 1014.1 |
| 20260904163048 | 56 | 24 | 0.0 | 2.0 | 0.00 | 0.18 | 0.00 | 90 | 1014.2 |
| 20260904161550 | 55 | 353 | 0.0 | 2.0 | 0.00 | 0.18 | 0.00 | 91 | 1014.0 |
| 20260904160053 | 54 | 211 | 0.0 | 0.0 | 0.00 | 0.18 | 0.00 | 91 | 1013.9 |
| 20260904154539 | 53 | 212 | 0.0 | 0.0 | 0.00 | 0.18 | 0.00 | 91 | 1013.6 |
| 20260904153049 | 52 | 211 | 0.0 | 1.0 | 0.00 | 0.18 | 0.00 | 91 | 1013.5 |
| 20260904151549 | 51 | 210 | 1.0 | 2.0 | 0.00 | 0.18 | 0.00 | 91 | 1013.5 |
| 20260904150054 | 51 | 187 | 0.0 | 0.0 | 0.00 | 0.18 | 0.00 | 91 | 1013.5 |
| 20260904144536 | 50 | 187 | 0.0 | 0.0 | 0.00 | 0.18 | 0.00 | 91 | 1013.5 |
| 20260904143039 | 50 | 187 | 0.0 | 0.0 | 0.00 | 0.18 | 0.00 | 91 | 1013.5 |
| 20260904141543 | 49 | 187 | 0.0 | 0.0 | 0.00 | 0.18 | 0.00 | 91 | 1013.4 |
| 20260904140054 | 49 | 187 | 0.0 | 0.0 | 0.00 | 0.18 | 0.00 | 91 | 1013.1 |
| 20260904134538 | 49 | 187 | 0.0 | 0.0 | 0.00 | 0.18 | 0.00 | 91 | 1012.8 |
| 20260904133043 | 49 | 187 | 0.0 | 0.0 | 0.00 | 0.18 | 0.00 | 91 | 1012.4 |
| 20260904131545 | 49 | 187 | 0.0 | 0.0 | 0.00 | 0.18 | 0.00 | 91 | 1012.3 |
| 20260904130048 | 48 | 187 | 0.0 | 1.0 | 0.00 | 0.18 | 0.00 | 91 | 1012.2 |
| 20260904124546 | 48 | 187 | 0.0 | 0.0 | 0.00 | 0.18 | 0.00 | 91 | 1012.2 |
| 20260904123042 | 48 | 187 | 0.0 | 0.0 | 0.00 | 0.18 | 0.00 | 91 | 1012.1 |
| 20260904121538 | 48 | 187 | 0.0 | 0.0 | 0.00 | 0.18 | 0.00 | 91 | 1012.0 |
| 20260904120024 | 48 | 187 | 1.0 | 2.0 | 0.00 | 0.18 | 0.00 | 91 | 1011.9 |
| 20260904114535 | 47 | 191 | 0.0 | 0.0 | 0.00 | 0.18 | 0.00 | 91 | 1012.0 |
| 20260904113038 | 47 | 191 | 0.0 | 0.0 | 0.00 | 0.18 | 0.00 | 91 | 1011.8 |
| 20260904111531 | 47 | 190 | 0.0 | 0.0 | 0.00 | 0.18 | 0.00 | 91 | 1011.7 |
| 20260904110016 | 47 | 191 | 0.0 | 0.0 | 0.00 | 0.18 | 0.00 | 91 | 1011.6 |
| 20260904104519 | 47 | 190 | 0.0 | 1.0 | 0.00 | 0.18 | 0.00 | 91 | 1011.3 |
| 20260904103025 | 47 | 190 | 0.0 | 1.0 | 0.00 | 0.18 | 0.00 | 91 | 1011.3 |
| 20260904101526 | 47 | 191 | 0.0 | 1.0 | 0.00 | 0.18 | 0.00 | 91 | 1011.2 |
| 20260904100009 | 46 | 188 | 1.0 | 2.0 | 0.00 | 0.18 | 0.00 | 91 | 1011.2 |
| 20260904094513 | 46 | 192 | 1.0 | 2.0 | 0.00 | 0.18 | 0.00 | 91 | 1011.2 |
| 20260904093016 | 46 | 195 | 0.0 | 1.0 | 0.00 | 0.18 | 0.00 | 91 | 1011.3 |
| 20260904091519 | 46 | 195 | 0.0 | 1.0 | 0.00 | 0.18 | 0.00 | 91 | 1011.3 |
| 20260904090007 | 46 | 195 | 0.0 | 0.0 | 0.00 | 0.18 | 0.00 | 91 | 1011.3 |
| 20260904084506 | 47 | 195 | 0.0 | 0.0 | 0.00 | 0.18 | 0.00 | 91 | 1011.3 |
| 20260904083008 | 47 | 195 | 0.0 | 1.0 | 0.00 | 0.18 | 0.00 | 91 | 1011.4 |
| 20260904081513 | 47 | 195 | 0.0 | 1.0 | 0.00 | 0.18 | 0.00 | 91 | 1011.4 |
| 20260904080118 | 48 | 195 | 0.0 | 1.0 | 0.00 | 0.18 | 0.00 | 91 | 1011.4 |
| 20260904074617 | 47 | 196 | 0.0 | 1.0 | 0.00 | 0.18 | 0.00 | 91 | 1011.5 |
| 20260904073109 | 47 | 196 | 0.0 | 2.0 | 0.00 | 0.18 | 0.00 | 91 | 1011.4 |
| 20260904071511 | 48 | 224 | 0.0 | 0.0 | 0.00 | 0.18 | 0.00 | 91 | 1011.4 |
| 20260904070131 | 48 | 224 | 0.0 | 0.0 | 0.00 | 0.18 | 0.18 | 91 | 1011.3 |
| 20260904064549 | 47 | 224 | 0.0 | 0.0 | 0.00 | 0.18 | 0.18 | 91 | 1011.2 |
| 20260904063057 | 48 | 224 | 0.0 | 0.0 | 0.00 | 0.18 | 0.18 | 91 | 1011.2 |
| 20260904061604 | 48 | 224 | 0.0 | 0.0 | 0.00 | 0.18 | 0.18 | 91 | 1011.1 |
| 20260904054553 | 48 | 224 | 0.0 | 0.0 | 0.00 | 0.18 | 0.18 | 91 | 1010.9 |
| 20260904053059 | 49 | 224 | 0.0 | 0.0 | 0.00 | 0.18 | 0.18 | 91 | 1010.9 |
| 20260904051606 | 49 | 224 | 0.0 | 0.0 | 0.00 | 0.18 | 0.18 | 91 | 1011.0 |
| 20260904044547 | 50 | 224 | 0.0 | 0.0 | 0.00 | 0.18 | 0.18 | 90 | 1011.0 |
| 20260904043103 | 51 | 224 | 0.0 | 0.0 | 0.00 | 0.18 | 0.18 | 90 | 1010.9 |
| 20260904041555 | 51 | 224 | 0.0 | 0.0 | 0.00 | 0.18 | 0.18 | 90 | 1011.0 |
| 20260904040058 | 52 | 224 | 0.0 | 0.0 | 0.00 | 0.18 | 0.18 | 90 | 1010.9 |
| 20260904034551 | 53 | 224 | 0.0 | 0.0 | 0.00 | 0.18 | 0.18 | 89 | 1010.8 |
| 20260904033048 | 54 | 224 | 0.0 | 1.0 | 0.00 | 0.18 | 0.18 | 88 | 1010.7 |
| 20260904031552 | 55 | 224 | 0.0 | 0.0 | 0.00 | 0.18 | 0.18 | 87 | 1010.6 |